Вернуться в каталог

STARLINK-36997

АктивенСвязьVLEO
NORAD 68248·PAYLOAD·🇺🇸 United States

Запущен Mar 17, 2026 с Vandenberg Space Force Base

Loading…

Ближайшие Пролёты (ближайшие 24 часа)

TLE

СвежийSource: CelesTrak SupGP

Эпоха: Sep 15, 2026, 04:03 UTC

1 68248C 26054S   26258.16923611  .00035178  00000+0  10395-2 0  2588
2 68248  53.1556 134.3879 0001194  87.7073 358.3191 15.34369769    11

Отслеживайте STARLINK-36997 в реальном времени с AllMySat

Download on the App Store